Regional Weather Roundup
Issued by NWS

Home | Current Version | Previous Version | Graphics & Text | Print | Product List | Glossary On
Versions: 1 2 3 4 5 6 7 8 9 10 11 12 13 14 15 16 17 18 19 20 21 22 23 24 25 26 27 28 29 30 31 32 33 34 35 36 37 38 39 40 41 42 43 44 45 46 47 48 49 50
000
ASUS45 KABQ 180201
RWRNM
WEATHER ROUNDUP FOR NEW MEXICO
NATIONAL WEATHER SERVICE ALBUQUERQUE NM
700 PM MST WED DEC 17 2014

NOTE: "FAIR" MEANS FEW OR NO CLOUDS BELOW 12,000 FEET AGL WITH NO
       SIGNIFICANT WEATHER OR OBSTRUCTIONS TO VISION.

      THIS PRODUCT IS RELEASED AS TWO VERSIONS.  ONE VERSION NEAR
      THE TOP OF THE HOUR CONTAINING PRELIMINARY DATA FROM ALBUQUERQUE
      AND OTHER STATIONS.  A FINAL VERSION WITH ADDITIONAL DATA IS
      ISSUED ABOUT 10 MINUTES AFTER THE HOUR.

NMZ501-503-504-510>518-180300-
NORTHWEST PLATEAU/NORTHCENTRAL MOUNTAINS

CITY           SKY/WX    TMP DP  RH WIND       PRES   REMARKS
FARMINGTON     LGT RAIN  35  33  92 W7        30.03R WCI  29
SANTA FE       FOG       33  32  96 SW8       30.02R VSB 1/4 WCI  26
TAOS           CLOUDY    30  27  86 S3        30.01R

$$
NMZ402-403-502-505>509-180300-
WESTCENTRAL MOUNTAINS/SOUTHWEST MOUNTAINS

CITY           SKY/WX    TMP DP  RH WIND       PRES   REMARKS
GALLUP         PTCLDY    32  28  85 S8        30.06R WCI  25
GRANTS         MOCLDY    33  27  80 N3        30.07R
SILVER CITY    LGT RAIN  39  36  87 W9        30.14R WCI  33

$$
NMZ407-409-411-412-180300-
SOUTHERN DESERTS

CITY           SKY/WX    TMP DP  RH WIND       PRES   REMARKS
DEMING         MOCLDY    43  39  86 W6        30.11R
HOLLOMAN AFB   PTCLDY    48  30  49 SW7       30.07R
ALAMOGORDO     MOCLDY    45  30  57 S7        30.08R
T OR C         CLEAR     43  25  49 W6        30.06R

$$
NMZ519>523-180300-
CENTRAL VALLEYS/CENTRAL HIGHLANDS

CITY           SKY/WX    TMP DP  RH WIND       PRES   REMARKS
ALBUQUERQUE    CLOUDY    38  36  92 SE7       30.05R WCI  33
DOUBLE EAGLE   CLOUDY    36  34  93 CALM      30.06R
MORIARTY ARPT  CLOUDY    34  32  93 S3        30.05R
CLINES CORNERS LGT SNOW  32  31  96 W18       30.00R VSB 1   WCI  20
BELEN          MOCLDY    37  35  92 SW6       30.07R WCI  32
SOCORRO        NOT AVBL

$$
NMZ524>526-539-540-180300-
SOUTHCENTRAL MOUNTAINS

CITY           SKY/WX    TMP DP  RH WIND       PRES   REMARKS
RUIDOSO        PTCLDY    36  28  75 SW14      30.08R WCI  27

$$
NMZ527>531-180300-
NORTHEAST HIGHLANDS/NORTHEAST PLAINS

CITY           SKY/WX    TMP DP  RH WIND       PRES   REMARKS
LAS VEGAS      PTCLDY    32  25  75 S12       29.96R WCI  23
RATON          CLOUDY    29  22  75 N7        29.93R WCI  22
CLAYTON        LGT RAIN  34  30  85 N9        29.94R WCI  27

$$
NMZ532>537-180300-
EASTCENTRAL PLAINS

CITY           SKY/WX    TMP DP  RH WIND       PRES   REMARKS
TUCUMCARI      CLEAR     48  30  49 W13       29.92R
CANNON AFB     PTCLDY    44  28  53 W10       29.98R
CLOVIS AIRPORT PTCLDY    39  27  60 W8        29.97R WCI  34

$$
NMZ028-029-538-180300-
SOUTHEAST PLAINS

CITY           SKY/WX    TMP DP  RH WIND       PRES   REMARKS
ROSWELL        CLOUDY    53  31  42 SW9       30.00R
ARTESIA        CLEAR     54  32  43 W16G23    30.02S
CARLSBAD       CLEAR     53  30  41 W10       30.01R
HOBBS          CLEAR     48  28  46 SW8       30.03R


$$



USA.gov is the U.S. government's official web portal to all federal, state and local government web resources and services.